| time (UTC) | temp C | wind direction | speed KPH | gust KPH | rain 1hr cm | rain 24hr cm | rain mn cm | humidity % | barometer mb |
| 20260504150807 | 18 | 247 | 8.0 | 22.5 | 0.00 | 0.00 | 0.00 | 57 | 1005.6 |
| 20260504150538 | 18 | 219 | 9.7 | 22.5 | 0.00 | 0.00 | 0.00 | 58 | 1005.6 |
| 20260504140702 | 16 | 293 | 8.0 | 24.1 | 0.00 | 0.00 | 0.00 | 63 | 1005.9 |
| 20260504140428 | 16 | 243 | 8.0 | 19.3 | 0.00 | 0.00 | 0.00 | 62 | 1005.9 |
| 20260504130550 | 14 | 245 | 6.4 | 14.5 | 0.00 | 0.00 | 0.00 | 67 | 1006.4 |
| 20260504110326 | 10 | 219 | 3.2 | 9.7 | 0.00 | 0.00 | 0.00 | 72 | 1006.7 |
| 20260504110321 | 10 | 222 | 3.2 | 14.5 | 0.00 | 0.00 | 0.00 | 72 | 1006.8 |
| 20260504100213 | 10 | 227 | 1.6 | 8.0 | 0.00 | 0.00 | 0.00 | 71 | 1006.5 |
| 20260504081556 | 10 | 200 | 1.6 | 6.4 | 0.00 | 0.00 | 0.00 | 69 | 1007.1 |
| 20260504081057 | 10 | 231 | 1.6 | 4.8 | 0.00 | 0.00 | 0.00 | 69 | 1007.1 |
| 20260504080828 | 10 | 237 | 1.6 | 4.8 | 0.00 | 0.00 | 0.00 | 69 | 1007.1 |
| 20260504050536 | 12 | 210 | 6.4 | 17.7 | 0.00 | 0.00 | 0.00 | 63 | 1009.3 |
| 20260504045537 | 12 | 242 | 4.8 | 20.9 | 0.00 | 0.00 | 0.00 | 63 | 1009.4 |
| 20260504045037 | 12 | 191 | 3.2 | 11.3 | 0.00 | 0.00 | 0.00 | 63 | 1009.4 |
| 20260504044538 | 12 | 231 | 4.8 | 11.3 | 0.00 | 0.00 | 0.00 | 63 | 1009.5 |
| 20260504044038 | 12 | 248 | 4.8 | 11.3 | 0.00 | 0.00 | 0.00 | 63 | 1009.6 |
| 20260504044032 | 12 | 196 | 4.8 | 11.3 | 0.00 | 0.00 | 0.00 | 63 | 1009.5 |
| 20260504043033 | 11 | 231 | 4.8 | 11.3 | 0.00 | 0.00 | 0.00 | 63 | 1009.6 |
| 20260504042532 | 11 | 254 | 4.8 | 12.9 | 0.00 | 0.00 | 0.00 | 63 | 1009.7 |
| 20260504042033 | 11 | 229 | 4.8 | 19.3 | 0.00 | 0.00 | 0.00 | 63 | 1009.6 |
| 20260504041803 | 12 | 207 | 4.8 | 19.3 | 0.00 | 0.00 | 0.00 | 63 | 1009.7 |
| 20260504041654 | 11 | 220 | 6.4 | 14.5 | 0.00 | 0.00 | 0.00 | 63 | 1009.8 |
| 20260504040532 | 11 | 248 | 6.4 | 14.5 | 0.00 | 0.00 | 0.00 | 63 | 1009.8 |
| 20260504040034 | 12 | 218 | 6.4 | 17.7 | 0.00 | 0.00 | 0.00 | 63 | 1009.9 |
| 20260504035526 | 12 | 224 | 6.4 | 17.7 | 0.00 | 0.00 | 0.00 | 63 | 1010.0 |
| 20260504035021 | 12 | 157 | 8.0 | 17.7 | 0.00 | 0.00 | 0.00 | 62 | 1010.0 |
| 20260504034515 | 12 | 232 | 8.0 | 17.7 | 0.00 | 0.00 | 0.00 | 62 | 1010.0 |
| 20260504034008 | 12 | 208 | 6.4 | 19.3 | 0.00 | 0.00 | 0.00 | 61 | 1010.0 |
| 20260504033503 | 12 | 220 | 6.4 | 19.3 | 0.00 | 0.00 | 0.00 | 62 | 1010.1 |
| 20260504032956 | 12 | 226 | 4.8 | 16.1 | 0.00 | 0.00 | 0.00 | 62 | 1010.1 |
| 20260504032451 | 12 | 233 | 4.8 | 14.5 | 0.00 | 0.00 | 0.00 | 62 | 1010.2 |
| 20260504031945 | 12 | 231 | 6.4 | 25.7 | 0.00 | 0.00 | 0.00 | 62 | 1010.4 |
| 20260504031439 | 12 | 211 | 6.4 | 25.7 | 0.00 | 0.00 | 0.00 | 62 | 1010.4 |
| 20260504030933 | 12 | 205 | 4.8 | 16.1 | 0.00 | 0.00 | 0.00 | 62 | 1010.5 |
| 20260504030433 | 12 | 225 | 3.2 | 12.9 | 0.00 | 0.00 | 0.00 | 62 | 1010.5 |
| 20260504025933 | 12 | 201 | 4.8 | 14.5 | 0.00 | 0.00 | 0.00 | 62 | 1010.6 |
| 20260504025433 | 12 | 200 | 6.4 | 17.7 | 0.00 | 0.00 | 0.00 | 62 | 1010.5 |
| 20260504024930 | 12 | 221 | 4.8 | 17.7 | 0.00 | 0.00 | 0.00 | 62 | 1010.6 |
| 20260504024430 | 12 | 214 | 3.2 | 11.3 | 0.00 | 0.00 | 0.00 | 62 | 1010.7 |
| 20260504023930 | 12 | 232 | 4.8 | 14.5 | 0.00 | 0.00 | 0.00 | 62 | 1010.7 |
| 20260504023429 | 12 | 239 | 4.8 | 14.5 | 0.00 | 0.00 | 0.00 | 62 | 1010.7 |
| 20260504022928 | 12 | 228 | 4.8 | 12.9 | 0.00 | 0.00 | 0.00 | 62 | 1010.7 |
| 20260504022700 | 12 | 273 | 4.8 | 14.5 | 0.00 | 0.00 | 0.00 | 63 | 1010.8 |
| 20260504021926 | 12 | 222 | 4.8 | 14.5 | 0.00 | 0.00 | 0.00 | 62 | 1010.7 |
| 20260504021427 | 12 | 240 | 3.2 | 11.3 | 0.00 | 0.00 | 0.00 | 62 | 1010.7 |
| 20260504020925 | 12 | 188 | 3.2 | 16.1 | 0.00 | 0.00 | 0.00 | 62 | 1010.8 |
| 20260504020424 | 12 | 214 | 4.8 | 16.1 | 0.00 | 0.00 | 0.00 | 61 | 1010.7 |
| 20260504020156 | 12 | 238 | 4.8 | 12.9 | 0.00 | 0.00 | 0.00 | 61 | 1010.9 |
| 20260504015656 | 12 | 231 | 6.4 | 24.1 | 0.00 | 0.00 | 0.00 | 61 | 1010.8 |
| 20260504014923 | 12 | 191 | 4.8 | 24.1 | 0.00 | 0.00 | 0.00 | 60 | 1010.7 |
| 20260504014654 | 13 | 196 | 4.8 | 19.3 | 0.00 | 0.00 | 0.00 | 60 | 1010.7 |
| 20260504013927 | 13 | 252 | 6.4 | 22.5 | 0.00 | 0.00 | 0.00 | 60 | 1010.7 |
| 20260504013421 | 13 | 229 | 6.4 | 22.5 | 0.00 | 0.00 | 0.00 | 60 | 1010.7 |
| 20260504012916 | 13 | 243 | 6.4 | 22.5 | 0.00 | 0.00 | 0.00 | 59 | 1010.7 |
| 20260504012409 | 13 | 239 | 6.4 | 22.5 | 0.00 | 0.00 | 0.00 | 59 | 1010.7 |
| 20260504011903 | 13 | 271 | 8.0 | 24.1 | 0.00 | 0.00 | 0.00 | 58 | 1010.7 |
| 20260504011357 | 13 | 287 | 9.7 | 27.4 | 0.00 | 0.00 | 0.00 | 58 | 1010.7 |
| 20260504011122 | 13 | 205 | 8.0 | 27.4 | 0.00 | 0.00 | 0.00 | 57 | 1010.7 |
| 20260504010345 | 13 | 224 | 8.0 | 20.9 | 0.00 | 0.00 | 0.00 | 56 | 1010.7 |
| 20260504005839 | 13 | 228 | 9.7 | 33.8 | 0.00 | 0.00 | 0.00 | 56 | 1010.7 |
| 20260504005333 | 14 | 178 | 11.3 | 33.8 | 0.00 | 0.00 | 0.00 | 55 | 1010.6 |
| 20260504004828 | 14 | 243 | 9.7 | 25.7 | 0.00 | 0.00 | 0.00 | 56 | 1010.6 |
| 20260504004321 | 14 | 243 | 11.3 | 29.0 | 0.00 | 0.00 | 0.00 | 56 | 1010.4 |
| 20260504003815 | 15 | 244 | 12.9 | 29.0 | 0.00 | 0.00 | 0.00 | 55 | 1010.5 |
| 20260504003309 | 15 | 236 | 12.9 | 25.7 | 0.00 | 0.00 | 0.00 | 54 | 1010.4 |
| 20260504002803 | 15 | 240 | 11.3 | 30.6 | 0.00 | 0.00 | 0.00 | 53 | 1010.2 |
| 20260504002257 | 15 | 271 | 9.7 | 25.7 | 0.00 | 0.00 | 0.00 | 52 | 1010.1 |
| 20260504001755 | 15 | 210 | 11.3 | 25.7 | 0.00 | 0.00 | 0.00 | 51 | 1010.0 |
| 20260504001255 | 15 | 223 | 11.3 | 27.4 | 0.00 | 0.00 | 0.00 | 50 | 1009.9 |
| 20260504000755 | 16 | 286 | 9.7 | 27.4 | 0.00 | 0.00 | 0.00 | 48 | 1009.9 |
| 20260504000255 | 16 | 242 | 9.7 | 27.4 | 0.00 | 0.00 | 0.00 | 48 | 1009.8 |
| 20260503235753 | 16 | 304 | 12.9 | 30.6 | 0.00 | 0.00 | 0.00 | 48 | 1009.9 |
| 20260503235255 | 16 | 236 | 12.9 | 30.6 | 0.00 | 0.00 | 0.00 | 47 | 1009.9 |
| 20260503234754 | 16 | 283 | 11.3 | 24.1 | 0.00 | 0.00 | 0.00 | 47 | 1009.8 |
| 20260503234255 | 16 | 231 | 11.3 | 24.1 | 0.00 | 0.00 | 0.00 | 47 | 1009.8 |
| 20260503233755 | 16 | 184 | 11.3 | 24.1 | 0.00 | 0.00 | 0.00 | 47 | 1009.9 |
| 20260503233257 | 16 | 255 | 11.3 | 24.1 | 0.00 | 0.00 | 0.00 | 46 | 1009.9 |
| 20260503233026 | 16 | 208 | 11.3 | 25.7 | 0.00 | 0.00 | 0.00 | 46 | 1009.9 |
| 20260503232254 | 16 | 260 | 11.3 | 25.7 | 0.00 | 0.00 | 0.00 | 45 | 1010.0 |
| 20260503231753 | 16 | 236 | 8.0 | 20.9 | 0.00 | 0.00 | 0.00 | 46 | 1010.0 |
| 20260503231254 | 16 | 236 | 11.3 | 29.0 | 0.00 | 0.00 | 0.00 | 46 | 1010.1 |
| 20260503230753 | 16 | 233 | 12.9 | 29.0 | 0.00 | 0.00 | 0.00 | 45 | 1010.0 |
| 20260503230254 | 17 | 256 | 9.7 | 27.4 | 0.00 | 0.00 | 0.00 | 43 | 1009.9 |
| 20260503225748 | 17 | 245 | 8.0 | 25.7 | 0.00 | 0.00 | 0.00 | 44 | 1009.9 |
| 20260503225243 | 17 | 236 | 11.3 | 25.7 | 0.00 | 0.00 | 0.00 | 43 | 1009.9 |
| 20260503224736 | 17 | 206 | 14.5 | 35.4 | 0.00 | 0.00 | 0.00 | 43 | 1010.1 |
| 20260503224231 | 17 | 255 | 12.9 | 35.4 | 0.00 | 0.00 | 0.00 | 42 | 1010.2 |
| 20260503223728 | 17 | 247 | 11.3 | 30.6 | 0.00 | 0.00 | 0.00 | 42 | 1010.4 |
| 20260503223227 | 17 | 246 | 16.1 | 33.8 | 0.00 | 0.00 | 0.00 | 42 | 1010.5 |
| 20260503222958 | 17 | 236 | 16.1 | 33.8 | 0.00 | 0.00 | 0.00 | 41 | 1010.4 |
| 20260503222228 | 18 | 262 | 12.9 | 30.6 | 0.00 | 0.00 | 0.00 | 41 | 1010.4 |
| 20260503221727 | 18 | 241 | 9.7 | 25.7 | 0.00 | 0.00 | 0.00 | 42 | 1010.4 |
| 20260503221228 | 18 | 246 | 9.7 | 29.0 | 0.00 | 0.00 | 0.00 | 43 | 1010.4 |
| 20260503220729 | 17 | 246 | 11.3 | 29.0 | 0.00 | 0.00 | 0.00 | 43 | 1010.4 |
| 20260503220227 | 17 | 255 | 12.9 | 30.6 | 0.00 | 0.00 | 0.00 | 43 | 1010.2 |
| 20260503215729 | 17 | 193 | 11.3 | 30.6 | 0.00 | 0.00 | 0.00 | 43 | 1010.4 |
| 20260503215228 | 17 | 254 | 9.7 | 25.7 | 0.00 | 0.00 | 0.00 | 43 | 1010.4 |
| 20260503214729 | 17 | 252 | 9.7 | 25.7 | 0.00 | 0.00 | 0.00 | 44 | 1010.4 |
| 20260503214228 | 17 | 224 | 11.3 | 27.4 | 0.00 | 0.00 | 0.00 | 43 | 1010.2 |
| 20260503213728 | 17 | 209 | 11.3 | 27.4 | 0.00 | 0.00 | 0.00 | 43 | 1010.4 |
| 20260503213228 | 17 | 257 | 12.9 | 30.6 | 0.00 | 0.00 | 0.00 | 44 | 1010.2 |
| 20260503212727 | 17 | 267 | 12.9 | 30.6 | 0.00 | 0.00 | 0.00 | 43 | 1010.5 |
| 20260503212226 | 17 | 245 | 11.3 | 37.0 | 0.00 | 0.00 | 0.00 | 42 | 1010.5 |
| 20260503211726 | 17 | 213 | 11.3 | 37.0 | 0.00 | 0.00 | 0.00 | 43 | 1010.5 |
| 20260503211226 | 17 | 275 | 12.9 | 29.0 | 0.00 | 0.00 | 0.00 | 41 | 1010.2 |
| 20260503210725 | 17 | 225 | 14.5 | 32.2 | 0.00 | 0.00 | 0.00 | 41 | 1010.4 |
| 20260503210225 | 17 | 172 | 14.5 | 40.2 | 0.00 | 0.00 | 0.00 | 42 | 1010.4 |
| 20260503205725 | 17 | 248 | 14.5 | 43.5 | 0.00 | 0.00 | 0.00 | 41 | 1010.4 |
| 20260503205227 | 17 | 215 | 14.5 | 43.5 | 0.00 | 0.00 | 0.00 | 41 | 1010.4 |
| 20260503204725 | 17 | 226 | 11.3 | 33.8 | 0.00 | 0.00 | 0.00 | 41 | 1010.5 |
| 20260503204226 | 17 | 241 | 12.9 | 29.0 | 0.00 | 0.00 | 0.00 | 42 | 1010.5 |
| 20260503203724 | 17 | 210 | 12.9 | 29.0 | 0.00 | 0.00 | 0.00 | 41 | 1010.6 |
| 20260503203223 | 17 | 232 | 12.9 | 30.6 | 0.00 | 0.00 | 0.00 | 41 | 1010.6 |
| 20260503202724 | 17 | 207 | 12.9 | 35.4 | 0.00 | 0.00 | 0.00 | 40 | 1010.5 |
| 20260503202225 | 17 | 238 | 12.9 | 35.4 | 0.00 | 0.00 | 0.00 | 40 | 1010.5 |
| 20260503201954 | 17 | 238 | 11.3 | 30.6 | 0.00 | 0.00 | 0.00 | 41 | 1010.6 |
| 20260503201224 | 17 | 167 | 12.9 | 30.6 | 0.00 | 0.00 | 0.00 | 41 | 1010.6 |
| 20260503200723 | 17 | 269 | 11.3 | 30.6 | 0.00 | 0.00 | 0.00 | 40 | 1010.7 |
| 20260503200229 | 17 | 239 | 12.9 | 35.4 | 0.00 | 0.00 | 0.00 | 38 | 1010.8 |
| 20260503200223 | 17 | 263 | 11.3 | 30.6 | 0.00 | 0.00 | 0.00 | 40 | 1010.8 |
| 20260503195828 | 17 | 214 | 12.9 | 35.4 | 0.00 | 0.00 | 0.00 | 39 | 1010.8 |
| 20260503194720 | 17 | 267 | 11.3 | 32.2 | 0.00 | 0.00 | 0.00 | 39 | 1010.9 |
| 20260503194221 | 17 | 258 | 9.7 | 27.4 | 0.00 | 0.00 | 0.00 | 39 | 1011.0 |
| 20260503193720 | 17 | 283 | 9.7 | 29.0 | 0.00 | 0.00 | 0.00 | 39 | 1011.1 |
| 20260503193220 | 17 | 261 | 12.9 | 30.6 | 0.00 | 0.00 | 0.00 | 39 | 1011.1 |
| 20260503192719 | 17 | 214 | 16.1 | 38.6 | 0.00 | 0.00 | 0.00 | 39 | 1011.3 |
| 20260503192220 | 17 | 240 | 16.1 | 38.6 | 0.00 | 0.00 | 0.00 | 38 | 1011.3 |
| 20260503191720 | 17 | 298 | 12.9 | 37.0 | 0.00 | 0.00 | 0.00 | 39 | 1011.2 |
| 20260503191452 | 17 | 209 | 12.9 | 35.4 | 0.00 | 0.00 | 0.00 | 38 | 1011.4 |
| 20260503190716 | 17 | 220 | 12.9 | 35.4 | 0.00 | 0.00 | 0.00 | 39 | 1011.4 |
| 20260503190215 | 18 | 236 | 12.9 | 38.6 | 0.00 | 0.00 | 0.00 | 38 | 1011.5 |
| 20260503185716 | 18 | 115 | 11.3 | 38.6 | 0.00 | 0.00 | 0.00 | 39 | 1011.6 |
| 20260503185215 | 18 | 220 | 9.7 | 25.7 | 0.00 | 0.00 | 0.00 | 40 | 1011.6 |
| 20260503184716 | 17 | 265 | 11.3 | 29.0 | 0.00 | 0.00 | 0.00 | 39 | 1011.7 |
| 20260503184215 | 17 | 228 | 11.3 | 29.0 | 0.00 | 0.00 | 0.00 | 41 | 1011.8 |
| 20260503183716 | 16 | 245 | 12.9 | 29.0 | 0.00 | 0.00 | 0.00 | 40 | 1011.8 |
| 20260503183449 | 16 | 318 | 12.9 | 33.8 | 0.00 | 0.00 | 0.00 | 40 | 1012.0 |
| 20260503182716 | 16 | 224 | 12.9 | 33.8 | 0.00 | 0.00 | 0.00 | 39 | 1012.1 |
| 20260503182213 | 16 | 166 | 12.9 | 30.6 | 0.00 | 0.00 | 0.00 | 40 | 1012.1 |
| 20260503181713 | 16 | 248 | 12.9 | 32.2 | 0.00 | 0.00 | 0.00 | 41 | 1012.2 |
| 20260503181214 | 17 | 240 | 11.3 | 32.2 | 0.00 | 0.00 | 0.00 | 39 | 1012.2 |
| 20260503180715 | 17 | 247 | 12.9 | 32.2 | 0.00 | 0.00 | 0.00 | 39 | 1012.3 |
| 20260503180444 | 16 | 267 | 14.5 | 38.6 | 0.00 | 0.00 | 0.00 | 40 | 1012.4 |
| 20260503175713 | 16 | 210 | 14.5 | 38.6 | 0.00 | 0.00 | 0.00 | 39 | 1012.4 |
| 20260503175213 | 16 | 269 | 14.5 | 32.2 | 0.00 | 0.00 | 0.00 | 41 | 1012.4 |
| 20260503174715 | 16 | 261 | 14.5 | 35.4 | 0.00 | 0.00 | 0.00 | 40 | 1012.6 |
| 20260503174213 | 16 | 240 | 14.5 | 35.4 | 0.00 | 0.00 | 0.00 | 40 | 1012.6 |
| 20260503173713 | 16 | 293 | 11.3 | 30.6 | 0.00 | 0.00 | 0.00 | 40 | 1012.6 |
| 20260503173213 | 16 | 249 | 9.7 | 25.7 | 0.00 | 0.00 | 0.00 | 41 | 1012.6 |
| 20260503172946 | 16 | 300 | 11.3 | 27.4 | 0.00 | 0.00 | 0.00 | 41 | 1012.7 |
| 20260503172216 | 16 | 198 | 16.1 | 29.0 | 0.00 | 0.00 | 0.00 | 41 | 1012.9 |
| 20260503171711 | 15 | 253 | 17.7 | 43.5 | 0.00 | 0.00 | 0.00 | 40 | 1013.0 |
| 20260503171435 | 16 | 255 | 14.5 | 43.5 | 0.00 | 0.00 | 0.00 | 40 | 1013.0 |
| 20260503170658 | 16 | 217 | 11.3 | 25.7 | 0.00 | 0.00 | 0.00 | 40 | 1013.1 |
| 20260503170423 | 15 | 287 | 14.5 | 27.4 | 0.00 | 0.00 | 0.00 | 41 | 1013.2 |